SITRO-AIS 11 (SHEFFER)

Last updated on Sat Aug 15 2026 00:03:45 GMT+0000 (Coordinated Universal Time)

1 57208U 23091AU 26226.56832380 .00012601 00000+0 30892-3 0 9994 2 57208 97.5050 299.0539 0005779 199.3453 160.7574 15.40852430173776
UTC large
Height (km)
Speed (km/s)
/
Latitude / Longitude
Inclination (degrees)
Orbital Period (minutes)
Azimuth
Elevation
Range (km)
Doppler Factor

Next 0 passes for location: London (51.5072 / 0.1276)

No passes found over London.
SITRO-AIS 11 (SHEFFER)